Location: Dentlein
(49.1477°N, 10.4231°E)
Time: 02:39:45
(UTC+00:00)

Cosmos 968 Rocket - Pass Details

Date: 23 May 2024
Orbit: 738 x 769 km, 74.0° (Epoch: 19 June)

Event Time Altitude Azimuth Distance (km) Brightness Sun altitude
Exits shadow 02:02:16 15° 215° (SW) 1,940 4.9 -10.9°
Maximum altitude 02:06:31 66° 296° (WNW) 810 3.6 -10.5°
Drops below altitude 10° 02:11:39 10° 19° (NNE) 2,272 7.2 -9.9°
Sets 02:14:03 0° 22° (NNE) 3,205 8.3 -9.7°
